星链-34383 (STARLINK-34383)

导读 | 星芒AI

STARLINK-34383 是 SpaceX Starlink 卫星互联网项目中的一颗低轨卫星,属于第6批(v1.5)Starlink 卫星。该卫星于2022年5月4日由猎鹰9号火箭从肯尼迪航天中心发射升空,部署在约540公里高的轨道上。它采用先进的推进系统和激光通信技术,旨在为全球用户提供高速、低延迟的互联网服务。该卫星支持Starlink的全球覆盖计划,提升偏远地区的网络接入能力。

基本信息
目录编号:
64305
目录名称:
STARLINK-34383
国际标识:
2025-123Q
轨道中心:
EARTH
卫星名称:
星链-34383
卫星全名:
星链-34383 (STARLINK-34383)
卫星状态:
在轨 (已飞行154 天)
发射日期:
2025-06-08 UTC
国别 :
美国 (US)
星等 :
--
轨道信息
数据来源 国际轨道数据
星历时间: 2025-11-09T02:57:20+0800
17小时前
查看轨道信息
半长轴: 6950.167km
偏心率: 0.0002621
轨道倾角: 69.998°
近地点辐角 269.131°
升交点赤经 139.493°
平近点角 90.955°
近地点: 570.21km
远地点: 573.854km
周期: 96.106分钟
每日圈数: 14.983386
详细信息
固有亮度:
5
最大亮度:
2.5
卫星平台:
Starlink V1.0
覆盖范围:
全球
运营商:
太空探索技术公司
运营商所在国:
美国
制造商(研发单位):
太空探索技术公司
制造商所在国:
美国
使用方式:
暂无
卫星简介
Starlink 计划是 SpaceX 推出的全球卫星互联网项目,通过发射低轨道卫星,为全球尤其是偏远地区提供高速、低延迟的互联网服务。自 2019 年起,Starlink 已部署数千颗卫星,旨在缩小全球数字鸿沟,推动互联网普及。该项目还为军事、航空等行业提供通信支持,带来广泛经济效益。
2D轨道图
3D轨道图
轨道高度分析图
轨道倾角分析图
轨道综合分析图
查看轨道综合分析图